[[{"header":{"parameterUnit":"m.s-1","parameterCategory":2,"la1":30.2991,"la2":30.254,"lo1":-89.0895,"lo2":-89.0444,"dy":0.0017,"dx":0.0017,"nx":28,"ny":28,"refTime":"2024-06-22T03:00:00:Z","depth":"0","parameterNumber":2,"parameterNumberName":"U-component_of_CURRENTS"},"data":[0,0,0,0,0,0,0,0,0,0,0,0,0,0,0,0,0,0,0,0,0,0,0,0,0,0,0,0,0,0,0,0,0,0,0,0,0,0,0,0,0,0,0,0,0,0,0,0,0,0,0,0,0,0,0,0,0,0,0.5398,0.5399,0,0.5384,0.5383,0.5382,0.5434,0.5437,0.5439,0.5441,0.5287,0.528,0.5274,0,0,0,0,0,0,0,0,0,0,0,0,0,0.54,0.5399,0.5398,0.5399,0.54,0.5384,0.5383,0.5382,0.5434,0.5437,0.544,0.5442,0.5289,0.5281,0.5273,0,0,0,0,0,0,0,0,0,0,0,0,0,0.5385,0.5399,0.5398,0.5431,0.5434,0.5385,0.5383,0.5382,0.5433,0.5437,0.544,0.5444,0.5291,0.5282,0.5272,0.514,0,0,0.5243,0.5239,0,0,0,0,0,0,0,0,0.5385,0.5383,0.5425,0.5429,0.5433,0.5423,0.5328,0.5297,0.5432,0.5423,0.5441,0.5446,0.5323,0.5311,0.5288,0.5133,0.5126,0.5242,0.5236,0.5232,0.523,0,0,0,0,0,0,0,0.5387,0.5384,0.5383,0.5426,0.543,0.5423,0.5424,0.5322,0.5342,0.5424,0.543,0.5443,0.5323,0.5297,0.5285,0.5124,0.5243,0.5234,0.5228,0.5224,0.488,0.4877,0,0,0,0,0,0,0.5407,0.5385,0.5383,0.5383,0.5429,0.5421,0.5422,0.5414,0.5347,0.5344,0.544,0.5446,0.5312,0.5296,0.5279,0.5152,0.5232,0.5223,0.5218,0.4883,0.4879,0.4876,0,0,0,0,0,0,0.5407,0.5406,0.5384,0.5393,0.5391,0.5419,0.5409,0.5413,0.5401,0.5362,0.5356,0.5429,0.5314,0.5293,0.5184,0.5146,0.5219,0.521,0.4887,0.4882,0.4877,0.4876,0,0,0,0,0,0,0.5406,0.5405,0.539,0.5394,0.5392,0.5351,0.5406,0.541,0.5408,0.5415,0.5348,0.5339,0.5315,0.5199,0.5175,0.5134,0.5203,0.4892,0.4885,0.4879,0.488,0.4871,0.4864,0,0,0,0,0,0.5406,0.5354,0.5388,0.5389,0.5375,0.535,0.5345,0.5372,0.5404,0.5377,0.5336,0.5341,0.5143,0.5187,0.516,0.5116,0.4895,0.4887,0.488,0.4884,0.4873,0.4864,0,0,0,0,0,0,0.5298,0.5356,0.5393,0.535,0.5361,0.5363,0.5336,0.5361,0.5306,0.5314,0.5281,0.5264,0.5163,0.5117,0.5168,0.4995,0.5023,0.501,0.5036,0.5025,0.5017,0.5098,0.5195,0,0,0,0,0,0.5282,0.5284,0.5324,0.5283,0.5294,0.5316,0.5308,0.5334,0.5303,0.5287,0.5232,0.5169,0.51,0.5052,0.4977,0.4857,0.4922,0.4812,0.4804,0.4798,0.4842,0.4911,0.4917,0.4851,0.4851,0.4851,0,0,0.5225,0.5258,0.5254,0.5266,0.5275,0.5245,0.5316,0.5302,0.5268,0.5267,0.5162,0.513,0.5062,0.4956,0.4905,0.4918,0.4841,0.4788,0.4784,0.4833,0.4905,0.4913,0.492,0.4845,0.4846,0.4847,0,0,0.5123,0.5148,0.5135,0.5133,0.517,0.5183,0.5183,0.5183,0.5183,0.5085,0.5096,0.5059,0.4891,0.4884,0.4849,0.4738,0.4801,0.4685,0.4703,0.4768,0.4777,0.4786,0.4863,0.4879,0.4676,0.4676,0.4676,0,0.5063,0.505,0.5112,0.5085,0.508,0.5152,0.5114,0.5096,0.5051,0.5064,0.5044,0.4933,0.4871,0.4828,0.4797,0.4729,0.4785,0.4754,0.4768,0.4778,0.4788,0.4865,0.4883,0.4675,0.4675,0.4675,0.4676,0,0.497,0.4945,0.492,0.4934,0.492,0.4895,0.4917,0.4906,0.4914,0.4925,0.4893,0.4839,0.4812,0.4758,0.4734,0.4756,0.4782,0.4765,0.4821,0.4797,0.4876,0.4895,0.4674,0.4674,0.4674,0.4675,0,0,0.487,0.4874,0.4858,0.4859,0.4855,0.4841,0.4799,0.4824,0.4867,0.4805,0.4848,0.4736,0.4801,0.477,0.476,0.4801,0.4893,0.4812,0.4815,0.4938,0.5064,0.5055,0.5076,0.4891,0.4895,0.4897,0.5092,0,0.4793,0.4731,0.4753,0.4674,0.4647,0.4706,0.468,0.4708,0.4748,0.4792,0.4815,0.4824,0.4774,0.4806,0.4833,0.4903,0.4944,0.4844,0.5028,0.5034,0.5071,0.5097,0.4963,0.5123,0.5111,0.5114,0.5116,0,0.4704,0.4681,0.4608,0.4619,0.4622,0.459,0.4663,0.466,0.476,0.4805,0.4864,0.4905,0.4969,0.4927,0.5054,0.5,0.5035,0.5072,0.508,0.5102,0.5061,0.5141,0.5159,0.5017,0.5146,0.5144,0.5142,0,0.4628,0.4583,0.4543,0.4522,0.4532,0.4547,0.4583,0.4669,0.474,0.4861,0.4954,0.5016,0.5106,0.5149,0.5214,0.5157,0.5379,0.5303,0.5324,0.5324,0.5265,0.5254,0.5217,0.5393,0.5393,0.5392,0.5391,0,0.4537,0.4498,0.4515,0.4475,0.4497,0.4511,0.4591,0.4661,0.4797,0.4909,0.4984,0.5101,0.5176,0.5296,0.5297,0.5403,0.5446,0.5373,0.5386,0.5251,0.5237,0.5154,0.5084,0.5399,0.5398,0.5396,0.5395,0,0.4453,0.4448,0.4424,0.4439,0.4458,0.4481,0.4612,0.4689,0.4825,0.4988,0.504,0.5228,0.539,0.5457,0.5584,0.5547,0.5474,0.5622,0.547,0.5461,0.5305,0.524,0.5077,0.4923,0.5686,0.5687,0.5688,0,0.4407,0.4379,0.441,0.4433,0.4447,0.4503,0.4565,0.4689,0.4788,0.5055,0.5134,0.5362,0.5479,0.569,0.5701,0.5752,0.5528,0.5638,0.5478,0.532,0.5257,0.5001,0.4863,0.5395,0.5393,0.5392,0.5391,0,0.4351,0.4382,0.4389,0.4426,0.4471,0.4523,0.4616,0.4685,0.4855,0.4992,0.5181,0.5303,0.5556,0.558,0.5692,0.5685,0.5379,0.5614,0.5485,0.5076,0.4762,0.4612,0.5254,0.538,0.5381,0.5382,0.5383,0.5383,0.4363,0.4377,0.441,0.4435,0.4482,0.45,0.4484,0.4598,0.4705,0.4819,0.5069,0.5159,0.5386,0.5533,0.5498,0.54,0.5314,0.525,0.5207,0.4978,0.4739,0.5373,0.548,0.5481,0.5483,0.5484,0.5485,0,0.4352,0.4374,0.4415,0.4412,0.4391,0.4436,0.4479,0.4414,0.4428,0.4618,0.4725,0.492,0.4999,0.511,0.5189,0.5031,0.4739,0.4886,0.4484,0.4384,0.501,0.4907,0.485,0.485,0.485,0.485,0.4851,0.4851,0.4366,0.4377,0.4369,0.4298,0.4276,0.4149,0.4108,0.4045,0.4101,0.4119,0.4195,0.4366,0.4717,0.4913,0.4817,0.47,0.43,0.4143,0.4065,0.4524,0.4552,0.4578,0.4462,0.4312,0.4312,0.3257,0.3249,0.3243]},{"header":{"parameterUnit":"m.s-1","parameterCategory":2,"la1":30.2991,"la2":30.254,"lo1":-89.0895,"lo2":-89.0444,"dy":0.0017,"dx":0.0017,"nx":28,"ny":28,"refTime":"2024-06-22T03:00:00:Z","depth":"0","parameterNumber":3,"parameterNumberName":"V-component_of_CURRENTS"},"data":[0,0,0,0,0,0,0,0,0,0,0,0,0,0,0,0,0,0,0,0,0,0,0,0,0,0,0,0,0,0,0,0,0,0,0,0,0,0,0,0,0,0,0,0,0,0,0,0,0,0,0,0,0,0,0,0,0,0,0.031,0.031,0,0.025,0.0249,0.0248,0.0175,0.0174,0.0173,0.0172,0.0032,0.0029,0.0026,0,0,0,0,0,0,0,0,0,0,0,0,0,0.0276,0.0277,0.031,0.031,0.031,0.025,0.0249,0.0248,0.0175,0.0174,0.0173,0.0172,0.0033,0.003,0.0026,0,0,0,0,0,0,0,0,0,0,0,0,0,0.0257,0.0277,0.031,0.0269,0.0265,0.0251,0.0249,0.0248,0.0175,0.0174,0.0173,0.0172,0.0034,0.003,0.0026,0.0022,0,0,0.0012,0.001,0,0,0,0,0,0,0,0,0.0259,0.0258,0.0275,0.0272,0.0267,0.0222,0.0186,0.017,0.0175,0.0205,0.0172,0.0171,0.0092,0.0082,0.007,0.0016,0.001,0.0012,0.0009,0.0007,0.0006,0,0,0,0,0,0,0,0.026,0.026,0.0283,0.0275,0.027,0.0224,0.022,0.0182,0.0152,0.0202,0.0198,0.0198,0.0088,0.0074,0.0066,0.0008,0.0012,0.0008,0.0005,0.0003,-0.0082,-0.0082,0,0,0,0,0,0,0.0281,0.0262,0.0285,0.0281,0.0264,0.0226,0.0222,0.0235,0.0154,0.0142,0.0199,0.0195,0.0082,0.0071,0.006,0.0058,0.0007,0.0003,0.0,-0.0083,-0.0082,-0.0082,0,0,0,0,0,0,0.0281,0.0285,0.0287,0.0272,0.027,0.0229,0.0243,0.0234,0.0222,0.0152,0.0138,0.0197,0.0081,0.0067,0.0035,0.0051,0.0001,-0.0003,-0.0083,-0.0082,-0.0082,0.0048,0,0,0,0,0,0,0.0281,0.0285,0.0301,0.0274,0.0271,0.0298,0.0245,0.0234,0.0226,0.0219,0.0146,0.0131,0.0079,0.0042,0.003,0.0044,-0.0007,-0.0084,-0.0083,-0.0082,0.0043,0.0053,0.0061,0,0,0,0,0,0.028,0.0315,0.0302,0.0305,0.0295,0.03,0.0295,0.0257,0.0227,0.0238,0.0181,0.0134,0.0038,0.0039,0.0025,0.0038,-0.0084,-0.0083,-0.0082,0.0039,0.0051,0.0061,0,0,0,0,0,0,0.0319,0.0311,0.0296,0.033,0.0323,0.029,0.0301,0.0269,0.0234,0.0225,0.0146,0.0129,0.0103,0.0054,0.0057,0.0013,-0.0034,-0.0035,0.0063,0.0073,0.0082,0.0112,-0.001,0,0,0,0,0,0.0335,0.0354,0.034,0.0369,0.0372,0.0336,0.0332,0.0309,0.0276,0.0259,0.0206,0.0145,0.0097,0.0074,0.0026,0.001,-0.0037,0.0005,0.0014,0.0022,0.0035,-0.0015,-0.0009,-0.0079,-0.0079,-0.0079,0,0,0.0358,0.0358,0.0368,0.0377,0.0368,0.0387,0.0331,0.0342,0.0345,0.025,0.0238,0.0178,0.01,0.0079,0.0062,0.004,0.0016,0.0024,0.0032,0.004,-0.0013,-0.0006,-0.0,-0.0078,-0.0078,-0.0078,0,0,0.0423,0.0419,0.0457,0.0453,0.0453,0.0435,0.0444,0.0418,0.0396,0.0379,0.0306,0.0262,0.0194,0.0144,0.0107,0.0137,0.0066,0.0117,0.0189,0.0141,0.0147,0.0151,0.0104,0.0103,0.0122,0.0122,0.0123,0,0.0449,0.0494,0.047,0.0501,0.0508,0.0464,0.0504,0.0479,0.0441,0.0431,0.0392,0.0293,0.0225,0.0194,0.0198,0.016,0.0122,0.0159,0.0155,0.0159,0.0161,0.0111,0.0109,0.0129,0.0128,0.0127,0.0127,0,0.0535,0.0563,0.059,0.0611,0.0619,0.0647,0.0618,0.0612,0.0575,0.0544,0.0508,0.0416,0.0359,0.0324,0.0267,0.0252,0.0217,0.0175,0.0136,0.0177,0.012,0.0116,0.0138,0.0136,0.0134,0.0132,0,0,0.0603,0.0643,0.0648,0.0677,0.0676,0.0698,0.0708,0.0711,0.0731,0.0661,0.0673,0.0568,0.0519,0.0472,0.0394,0.0345,0.032,0.0279,0.0273,0.0248,0.0219,0.0203,0.0195,0.0283,0.0283,0.0283,0.0175,0,0.0675,0.076,0.0753,0.0827,0.0869,0.0831,0.0853,0.0842,0.0817,0.0817,0.0709,0.0685,0.0575,0.0555,0.049,0.0372,0.0312,0.0353,0.0169,0.0164,0.0158,0.0191,0.0238,0.0147,0.017,0.0169,0.0168,0,0.0757,0.08,0.0893,0.0943,0.096,0.0995,0.1031,0.1045,0.1019,0.0997,0.0946,0.0863,0.0779,0.068,0.0495,0.053,0.0386,0.028,0.0273,0.0212,0.014,0.0106,0.0136,-0.0126,0.016,0.016,0.0161,0,0.0826,0.0895,0.0978,0.0991,0.1042,0.1076,0.1103,0.1107,0.1154,0.112,0.1155,0.1016,0.0982,0.0783,0.0555,0.0526,0.0358,0.0284,0.0127,0.0124,0.0104,0.0099,-0.0126,0.0145,0.0145,0.0146,0.0146,0,0.0903,0.0965,0.1022,0.1065,0.1176,0.1169,0.1285,0.1283,0.1322,0.1422,0.1265,0.1307,0.1009,0.0873,0.0625,0.0384,0.0404,0.0152,0.0101,0.0149,0.0151,-0.0128,-0.0264,0.0142,0.0143,0.0143,0.0144,0,0.098,0.1009,0.1114,0.1185,0.1222,0.1305,0.143,0.151,0.1523,0.165,0.165,0.1538,0.1359,0.1051,0.0742,0.0507,0.0111,0.0147,0.0226,0.0187,-0.0214,-0.0342,-0.0612,-0.0714,-0.0047,-0.0048,-0.0049,0,0.1034,0.1097,0.1219,0.1298,0.1345,0.1467,0.1564,0.1613,0.1722,0.1813,0.1892,0.1754,0.1703,0.1238,0.0781,0.0348,0.0091,0.0097,0.0033,-0.0219,-0.04,-0.0503,-0.0576,0.0049,0.0049,0.0049,0.0049,0,0.1138,0.1183,0.1269,0.1432,0.1553,0.17,0.1846,0.1964,0.2055,0.2173,0.2285,0.2247,0.1817,0.1394,0.0794,0.0492,-0.006,0.0084,-0.0198,-0.0353,-0.0458,-0.0584,0.0092,0.005,0.005,0.005,0.005,0.005,0.1221,0.1305,0.142,0.1574,0.1724,0.1914,0.2049,0.2221,0.2426,0.2618,0.2571,0.2584,0.1983,0.1169,0.0711,-0.0076,-0.0098,-0.0322,-0.0459,-0.0544,-0.0635,0.0048,-0.0039,-0.0039,-0.004,-0.004,-0.004,0,0.1307,0.1399,0.1551,0.1734,0.1907,0.1969,0.2223,0.2373,0.2633,0.2824,0.2919,0.2665,0.1908,0.114,0.0071,-0.0512,-0.0709,-0.0826,-0.0975,-0.1027,-0.0438,-0.0426,-0.0572,-0.0572,-0.0572,-0.0571,-0.0571,-0.0571,0.1357,0.1497,0.1568,0.1847,0.1987,0.2217,0.2366,0.2611,0.2802,0.3037,0.3088,0.3063,0.2495,0.0577,-0.075,-0.1052,-0.1435,-0.1524,-0.1742,-0.1364,-0.1328,-0.1294,-0.1317,-0.1647,-0.1648,-0.2243,-0.2249,-0.2254]}],[{"header":{"parameterUnit":"m.s-1","parameterCategory":2,"la1":30.2991,"la2":30.254,"lo1":-89.0895,"lo2":-89.0444,"dy":0.0017,"dx":0.0017,"nx":28,"ny":28,"refTime":"2024-06-22T03:00:00:Z","depth":"2","parameterNumber":2,"parameterNumberName":"U-component_of_CURRENTS"},"data":[0,0,0,0,0,0,0,0,0,0,0,0,0,0,0,0,0,0,0,0,0,0,0,0,0,0,0,0,0,0,0,0,0,0,0,0,0,0,0,0,0,0,0,0,0,0,0,0,0,0,0,0,0,0,0,0,0,0,0.3965,0.3967,0,0.4043,0.4043,0.4043,0.4077,0.4079,0.408,0.4081,0.4107,0.4107,0.4106,0,0,0,0,0,0,0,0,0,0,0,0,0,0.3856,0.3856,0.3965,0.3967,0.3969,0.4043,0.4043,0.4043,0.4077,0.4079,0.408,0.4082,0.4107,0.4107,0.4106,0,0,0,0,0,0,0,0,0,0,0,0,0,0.3901,0.3856,0.3964,0.4006,0.4012,0.4043,0.4043,0.4042,0.4077,0.4079,0.4081,0.4082,0.4108,0.4107,0.4106,0.4066,0,0,0.4104,0.4104,0,0,0,0,0,0,0,0,0.3899,0.3903,0.3998,0.4004,0.401,0.4065,0.4015,0.4053,0.4076,0.4037,0.4081,0.4083,0.4096,0.4097,0.4088,0.4067,0.4068,0.4104,0.4104,0.4104,0.4103,0,0,0,0,0,0,0,0.3895,0.3901,0.3981,0.4,0.4008,0.4026,0.4032,0.4021,0.4043,0.404,0.4047,0.4078,0.4098,0.4088,0.4089,0.4068,0.4104,0.4104,0.4103,0.4103,0.4105,0.4105,0,0,0,0,0,0,0.3912,0.3897,0.3979,0.3985,0.3974,0.4027,0.4034,0.4034,0.4045,0.4053,0.4076,0.408,0.4088,0.4089,0.409,0.4117,0.4104,0.4103,0.4103,0.4104,0.4105,0.4105,0,0,0,0,0,0,0.3909,0.3917,0.3976,0.3957,0.3967,0.4029,0.4027,0.4035,0.4048,0.4075,0.408,0.4087,0.409,0.4091,0.4105,0.4116,0.4103,0.4102,0.4104,0.4105,0.4105,0.4124,0,0,0,0,0,0,0.3904,0.3914,0.3924,0.3956,0.397,0.3994,0.4027,0.4035,0.407,0.4075,0.4085,0.4088,0.4091,0.4106,0.4104,0.4115,0.4102,0.4103,0.4104,0.4105,0.4123,0.4126,0.4128,0,0,0,0,0,0.39,0.389,0.3923,0.3935,0.3978,0.3995,0.4,0.4041,0.4069,0.406,0.4088,0.4089,0.411,0.4105,0.4103,0.4114,0.4103,0.4104,0.4105,0.4122,0.4125,0.4128,0,0,0,0,0,0,0.3843,0.3896,0.3931,0.3939,0.3975,0.4006,0.4016,0.4045,0.4057,0.4075,0.4088,0.4092,0.4115,0.4106,0.41,0.4118,0.4108,0.4109,0.4122,0.4125,0.4127,0.4156,0.4101,0,0,0,0,0,0.3841,0.3849,0.3904,0.3913,0.3931,0.3976,0.3995,0.4027,0.4051,0.4058,0.4076,0.4095,0.411,0.4113,0.4122,0.4117,0.4153,0.4125,0.4128,0.4129,0.4152,0.4214,0.4225,0.4109,0.4109,0.4109,0,0,0.3821,0.3859,0.3862,0.3904,0.3933,0.3961,0.3986,0.4017,0.4048,0.4058,0.4091,0.4106,0.4114,0.4127,0.4134,0.4122,0.418,0.4131,0.4132,0.4154,0.4217,0.4228,0.4239,0.4109,0.4109,0.4109,0,0,0.3793,0.3819,0.3825,0.3856,0.3924,0.3952,0.3967,0.4012,0.4036,0.4067,0.4097,0.4124,0.4129,0.4148,0.4154,0.4169,0.4198,0.4167,0.4191,0.425,0.4261,0.4271,0.4331,0.4347,0.4158,0.4158,0.4158,0,0.3784,0.3803,0.3828,0.3856,0.3894,0.3951,0.3977,0.4001,0.4052,0.4078,0.4084,0.4146,0.4144,0.4183,0.4191,0.4177,0.422,0.4178,0.4256,0.4266,0.4276,0.4336,0.4352,0.4159,0.4159,0.4159,0.4158,0,0.3764,0.3801,0.3804,0.3865,0.389,0.3921,0.3978,0.401,0.4056,0.4095,0.4153,0.4167,0.4209,0.4204,0.42,0.4265,0.4277,0.426,0.4252,0.429,0.4349,0.4366,0.416,0.416,0.416,0.4159,0,0,0.37,0.3781,0.3788,0.383,0.3908,0.3923,0.3976,0.4038,0.41,0.4136,0.4209,0.4224,0.4257,0.4269,0.4276,0.4317,0.441,0.4319,0.4321,0.4386,0.456,0.4513,0.4527,0.4413,0.4416,0.4419,0.4574,0,0.3697,0.3746,0.3789,0.3845,0.3876,0.3946,0.3994,0.4057,0.4124,0.4204,0.4238,0.431,0.4274,0.4318,0.4349,0.4416,0.4456,0.4371,0.4509,0.4513,0.4473,0.4546,0.4184,0.4287,0.459,0.4593,0.4595,0,0.3673,0.3717,0.3766,0.3862,0.3882,0.3924,0.4029,0.4088,0.4203,0.426,0.4335,0.4387,0.4467,0.4431,0.4553,0.4507,0.4536,0.457,0.4576,0.4543,0.4499,0.4299,0.4307,0.4624,0.4621,0.4619,0.4617,0,0.3612,0.3702,0.3744,0.3774,0.3883,0.3923,0.399,0.4103,0.4174,0.4324,0.441,0.4495,0.4583,0.463,0.4688,0.4643,0.4829,0.4769,0.4751,0.4749,0.4474,0.4442,0.4852,0.4852,0.4851,0.4851,0.485,0,0.359,0.3625,0.3725,0.3748,0.381,0.3898,0.3992,0.4081,0.423,0.4326,0.4445,0.4548,0.4644,0.4749,0.4756,0.4827,0.4884,0.4791,0.4796,0.4469,0.4436,0.4746,0.4732,0.4857,0.4855,0.4854,0.4853,0,0.3513,0.3585,0.3639,0.375,0.3785,0.383,0.3979,0.4051,0.4223,0.4365,0.4425,0.463,0.4786,0.4867,0.4985,0.4936,0.499,0.4987,0.4606,0.4563,0.485,0.4835,0.4995,0.4995,0.4995,0.4995,0.4995,0,0.3476,0.3499,0.3609,0.3639,0.3693,0.378,0.384,0.4014,0.4099,0.4394,0.4448,0.4691,0.4801,0.4989,0.497,0.5012,0.5049,0.4682,0.4516,0.4881,0.4871,0.4855,0.484,0.4156,0.4149,0.4144,0.4139,0,0.3401,0.345,0.3491,0.3555,0.3615,0.3676,0.3783,0.3845,0.4063,0.4208,0.4406,0.4542,0.4769,0.4675,0.4771,0.472,0.4646,0.4572,0.5065,0.4184,0.4105,0.4089,0.4099,0.4089,0.4094,0.4097,0.41,0.4102,0.3339,0.3345,0.3405,0.3447,0.3511,0.3542,0.3543,0.3675,0.3788,0.3955,0.4198,0.4289,0.4397,0.4372,0.4258,0.417,0.4477,0.4249,0.4259,0.4278,0.4161,0.4087,0.4046,0.405,0.4054,0.4058,0.4061,0,0.3246,0.3259,0.329,0.3319,0.3312,0.3406,0.3467,0.3437,0.3491,0.3695,0.3836,0.3642,0.3645,0.3729,0.3541,0.3568,0.3451,0.3402,0.3207,0.3265,0.3315,0.3139,0.2758,0.2753,0.2748,0.2743,0,0,0.3199,0.3176,0.3176,0.3103,0.3127,0.3055,0.3053,0.3059,0.3133,0.3151,0.3184,0.3501,0.366,0.3163,0.3124,0.29,0.3033,0.2783,0.3848,0.3679,0.3721,0.3851,0.3655,0,0,0,0,0]},{"header":{"parameterUnit":"m.s-1","parameterCategory":2,"la1":30.2991,"la2":30.254,"lo1":-89.0895,"lo2":-89.0444,"dy":0.0017,"dx":0.0017,"nx":28,"ny":28,"refTime":"2024-06-22T03:00:00:Z","depth":"2","parameterNumber":3,"parameterNumberName":"V-component_of_CURRENTS"},"data":[0,0,0,0,0,0,0,0,0,0,0,0,0,0,0,0,0,0,0,0,0,0,0,0,0,0,0,0,0,0,0,0,0,0,0,0,0,0,0,0,0,0,0,0,0,0,0,0,0,0,0,0,0,0,0,0,0,0,0.0342,0.0342,0,0.0273,0.0272,0.0271,0.022,0.022,0.022,0.022,0.0081,0.0078,0.0074,0,0,0,0,0,0,0,0,0,0,0,0,0,0.0334,0.0335,0.0342,0.0342,0.0341,0.0273,0.0272,0.0271,0.022,0.022,0.022,0.022,0.0082,0.0078,0.0074,0,0,0,0,0,0,0,0,0,0,0,0,0,0.0306,0.0335,0.0342,0.031,0.0307,0.0274,0.0272,0.027,0.022,0.022,0.022,0.022,0.0084,0.0079,0.0073,0.0044,0,0,0.0057,0.0055,0,0,0,0,0,0,0,0,0.0308,0.0306,0.0315,0.0312,0.0309,0.0258,0.0218,0.0192,0.022,0.025,0.022,0.022,0.0136,0.0127,0.011,0.0038,0.0032,0.0056,0.0053,0.0051,0.0049,0,0,0,0,0,0,0,0.031,0.0308,0.0311,0.0315,0.0311,0.0267,0.0263,0.0213,0.0191,0.0247,0.0244,0.0242,0.0133,0.0116,0.0106,0.003,0.0057,0.0052,0.0048,0.0046,-0.008,-0.008,0,0,0,0,0,0,0.033,0.031,0.0314,0.031,0.0311,0.0268,0.0263,0.0272,0.0193,0.0182,0.0242,0.024,0.0125,0.0113,0.0101,0.008,0.0051,0.0046,0.0043,-0.008,-0.008,-0.008,0,0,0,0,0,0,0.0331,0.0332,0.0316,0.031,0.0306,0.0269,0.0278,0.0271,0.0256,0.0191,0.0178,0.0237,0.0124,0.0109,0.0064,0.0074,0.0043,0.0039,-0.008,-0.008,-0.008,0.0026,0,0,0,0,0,0,0.0331,0.0333,0.0341,0.0312,0.0307,0.0306,0.0279,0.0269,0.0257,0.0253,0.0182,0.0168,0.0123,0.0072,0.0058,0.0066,0.0034,-0.008,-0.008,-0.008,0.0022,0.0029,0.0035,0,0,0,0,0,0.0331,0.0348,0.0342,0.0342,0.0322,0.0307,0.03,0.0269,0.0257,0.0255,0.0207,0.0171,0.006,0.0068,0.0052,0.0058,-0.0079,-0.008,-0.008,0.002,0.0028,0.0035,0,0,0,0,0,0,0.0348,0.0344,0.0336,0.0351,0.0335,0.03,0.0297,0.0276,0.0237,0.0234,0.0169,0.0152,0.0117,0.0068,0.0078,0.0018,-0.0016,-0.002,0.0065,0.0072,0.0078,0.0107,0.003,0,0,0,0,0,0.0358,0.0371,0.0354,0.0366,0.0363,0.0331,0.032,0.0303,0.0269,0.0252,0.0204,0.0148,0.0101,0.0074,0.0024,-0.0009,-0.0051,-0.0018,-0.0012,-0.0006,0.0005,-0.0046,-0.0043,-0.0081,-0.0081,-0.0081,0,0,0.0367,0.0368,0.0374,0.037,0.0356,0.0363,0.0323,0.0318,0.032,0.0242,0.0224,0.0169,0.0097,0.0064,0.0043,0.0026,-0.0019,-0.0006,-0.0001,0.0007,-0.0046,-0.0042,-0.0039,-0.0081,-0.0081,-0.0081,0,0,0.0399,0.0396,0.0418,0.041,0.0401,0.0387,0.0392,0.0363,0.0344,0.032,0.0266,0.022,0.0148,0.0102,0.0068,0.0075,0.0018,0.0056,0.0111,0.0062,0.0065,0.0067,0.0021,0.0018,0.0058,0.0059,0.0059,0,0.0408,0.0441,0.042,0.0437,0.0443,0.0407,0.0433,0.0407,0.0365,0.0356,0.0328,0.0232,0.0168,0.013,0.0131,0.0091,0.0056,0.0094,0.0073,0.0074,0.0075,0.0026,0.0022,0.0064,0.0063,0.0063,0.0062,0,0.0455,0.0478,0.0491,0.051,0.051,0.0524,0.0501,0.049,0.0467,0.0441,0.04,0.0313,0.0261,0.0227,0.018,0.0154,0.0125,0.0092,0.0063,0.0086,0.0032,0.0026,0.0071,0.0069,0.0068,0.0066,0,0,0.0481,0.0519,0.0522,0.0553,0.0553,0.0565,0.0569,0.0568,0.0583,0.0519,0.0525,0.0426,0.0385,0.0343,0.0273,0.0222,0.0188,0.0168,0.0163,0.014,0.0086,0.0053,0.0043,0.0157,0.0157,0.0156,0.0048,0,0.0526,0.0589,0.0591,0.0651,0.0688,0.0663,0.0678,0.0666,0.0645,0.0637,0.0542,0.0517,0.0428,0.041,0.0345,0.0233,0.0177,0.0221,0.0052,0.0047,0.003,0.0036,0.0078,-0.0015,0.0041,0.004,0.004,0,0.0575,0.0615,0.0691,0.0746,0.0759,0.0788,0.0821,0.0829,0.0799,0.0778,0.0731,0.0661,0.0577,0.05,0.0323,0.036,0.0235,0.0137,0.013,0.0061,0.0003,-0.0033,-0.0029,0.0028,0.0029,0.003,0.0031,0,0.0625,0.0686,0.0759,0.0774,0.0824,0.0855,0.0879,0.0878,0.0911,0.0877,0.0899,0.0775,0.0736,0.0563,0.0359,0.0344,0.0166,0.0115,-0.0036,-0.004,-0.0058,-0.0063,-0.0012,-0.0012,-0.0012,-0.0012,-0.0011,0,0.0681,0.0734,0.0794,0.0832,0.0926,0.0929,0.1021,0.1017,0.1042,0.1111,0.0987,0.1005,0.0753,0.062,0.0409,0.0179,0.0199,-0.0022,-0.0068,-0.0022,-0.0022,-0.0029,-0.0029,-0.0016,-0.0015,-0.0014,-0.0013,0,0.073,0.0764,0.0855,0.0927,0.0961,0.1029,0.1134,0.1194,0.1202,0.1289,0.1288,0.1182,0.101,0.0744,0.0465,0.0263,0.0028,-0.0064,0.0009,-0.0027,-0.0161,-0.0155,-0.0245,-0.0247,-0.0249,-0.025,-0.0251,0,0.0763,0.0819,0.0934,0.1001,0.1045,0.1149,0.123,0.1274,0.1357,0.141,0.1463,0.1327,0.1261,0.0834,0.0445,0.007,0.0019,-0.0147,-0.0183,-0.0148,-0.0184,-0.0176,-0.0167,-0.0169,-0.0169,-0.0169,-0.017,0,0.0828,0.0872,0.0949,0.1094,0.1199,0.1323,0.1446,0.1536,0.1609,0.1685,0.1751,0.1702,0.1313,0.0935,0.0413,0.0162,-0.0088,-0.0167,-0.0145,-0.0112,-0.0084,-0.0117,-0.011,-0.0173,-0.0172,-0.0172,-0.0172,-0.0172,0.088,0.0947,0.1057,0.1193,0.1323,0.1484,0.1598,0.1732,0.1884,0.2012,0.196,0.1902,0.1478,0.0813,0.0357,-0.0123,-0.0102,-0.027,-0.0265,-0.0261,-0.0229,-0.0205,-0.0311,-0.0311,-0.0311,-0.0312,-0.0312,0,0.0948,0.1024,0.1147,0.1316,0.1464,0.1528,0.1734,0.1848,0.2038,0.2153,0.2208,0.1813,0.1386,0.0889,0.0175,-0.0245,-0.0267,-0.0376,-0.0311,-0.0304,-0.0299,-0.0267,-0.036,-0.0362,-0.0363,-0.0365,0,0,0.0986,0.1108,0.1169,0.1407,0.1533,0.1732,0.1856,0.2027,0.2149,0.2256,0.2237,0.2164,0.1553,0.1031,0.0456,0.0041,-0.003,-0.0034,0.0054,0.0208,0.0218,-0.0187,-0.0124,0,0,0,0,0]}],[{"header":{"parameterUnit":"m.s-1","parameterCategory":2,"la1":30.2991,"la2":30.254,"lo1":-89.0895,"lo2":-89.0444,"dy":0.0017,"dx":0.0017,"nx":28,"ny":28,"refTime":"2024-06-22T03:00:00:Z","depth":"4","parameterNumber":2,"parameterNumberName":"U-component_of_CURRENTS"},"data":[0,0,0,0,0,0,0,0,0,0,0,0,0,0,0,0,0,0,0,0,0,0,0,0,0,0,0,0,0,0,0,0,0,0,0,0,0,0,0,0,0,0,0,0,0,0,0,0,0,0,0,0,0,0,0,0,0,0,0.2374,0.2376,0,0.2514,0.2516,0.2517,0.262,0.2621,0.2622,0.2623,0.2802,0.2806,0.2809,0,0,0,0,0,0,0,0,0,0,0,0,0,0.2176,0.218,0.2374,0.2376,0.2378,0.2514,0.2516,0.2518,0.262,0.2621,0.2623,0.2624,0.2801,0.2805,0.281,0,0,0,0,0,0,0,0,0,0,0,0,0,0.2283,0.2181,0.2374,0.2446,0.2454,0.2513,0.2516,0.2518,0.262,0.2621,0.2623,0.2624,0.2799,0.2805,0.281,0.2817,0,0,0.2828,0.2831,0,0,0,0,0,0,0,0,0.2277,0.229,0.2433,0.2441,0.245,0.2552,0.2512,0.262,0.262,0.2556,0.2623,0.2625,0.2721,0.2733,0.2755,0.2826,0.2833,0.2829,0.2832,0.2835,0.2836,0,0,0,0,0,0,0,0.2269,0.2285,0.2429,0.2435,0.2445,0.2465,0.2481,0.2532,0.2629,0.2562,0.257,0.2586,0.2726,0.2749,0.276,0.2836,0.2828,0.2834,0.2837,0.2839,0.307,0.3072,0,0,0,0,0,0,0.2254,0.2278,0.2424,0.2433,0.2366,0.2467,0.2486,0.2517,0.2628,0.2646,0.2585,0.259,0.2739,0.2753,0.2767,0.2913,0.2835,0.284,0.2843,0.3067,0.307,0.3073,0,0,0,0,0,0,0.2249,0.2266,0.2419,0.2358,0.2379,0.2469,0.2503,0.2519,0.2597,0.2645,0.2664,0.2652,0.274,0.2759,0.2865,0.2916,0.2843,0.2848,0.3064,0.3068,0.3072,0.3122,0,0,0,0,0,0,0.2243,0.2264,0.2307,0.2358,0.2382,0.2489,0.2502,0.2521,0.2601,0.2612,0.2708,0.2723,0.2743,0.2856,0.2871,0.2923,0.2852,0.3061,0.3066,0.3071,0.3117,0.3127,0.3136,0,0,0,0,0,0.2236,0.2273,0.2309,0.2328,0.2431,0.2491,0.2506,0.2572,0.2604,0.2647,0.2718,0.2723,0.2898,0.2863,0.288,0.2934,0.3058,0.3064,0.307,0.3113,0.3125,0.3136,0,0,0,0,0,0,0.2227,0.2289,0.2329,0.2392,0.2456,0.2509,0.256,0.2601,0.269,0.2719,0.276,0.278,0.2894,0.2909,0.287,0.3016,0.2978,0.2987,0.3005,0.3017,0.3026,0.3019,0.2857,0,0,0,0,0,0.2241,0.2283,0.235,0.241,0.2443,0.2513,0.2557,0.2605,0.2674,0.2717,0.2786,0.2857,0.2921,0.2966,0.3027,0.3106,0.3119,0.3152,0.3162,0.3169,0.3177,0.3237,0.3251,0.3093,0.3093,0.3093,0,0,0.2255,0.2297,0.2326,0.2411,0.2467,0.2528,0.2545,0.2627,0.2692,0.2721,0.285,0.2903,0.2952,0.3046,0.3096,0.3072,0.3224,0.3177,0.3183,0.3186,0.3244,0.326,0.3273,0.3097,0.3096,0.3095,0,0,0.2278,0.2346,0.2383,0.2441,0.2532,0.2573,0.2608,0.2699,0.2761,0.2873,0.291,0.2994,0.3104,0.314,0.3169,0.3267,0.3277,0.3298,0.3338,0.3396,0.3409,0.3421,0.346,0.3474,0.3296,0.3296,0.3297,0,0.2296,0.2364,0.2408,0.2464,0.2522,0.2598,0.2663,0.2729,0.2851,0.2902,0.2929,0.3099,0.3142,0.3231,0.3268,0.3288,0.3321,0.3286,0.3407,0.3418,0.3429,0.3466,0.3481,0.33,0.3299,0.3299,0.3299,0,0.2336,0.2416,0.2448,0.2542,0.2604,0.268,0.2763,0.2849,0.2933,0.2994,0.313,0.3196,0.3289,0.3317,0.3326,0.3429,0.3428,0.3413,0.337,0.3448,0.3482,0.3497,0.3304,0.3303,0.3302,0.3301,0,0,0.2309,0.2447,0.2468,0.2531,0.266,0.2708,0.2819,0.2926,0.301,0.3125,0.3229,0.3332,0.3376,0.3412,0.3442,0.349,0.3592,0.3493,0.3495,0.3518,0.3726,0.3498,0.3493,0.3608,0.3611,0.3613,0.3719,0,0.2341,0.2445,0.2514,0.2636,0.2699,0.2801,0.2893,0.2999,0.3105,0.3226,0.3296,0.3419,0.3409,0.348,0.3524,0.3592,0.3636,0.3565,0.366,0.3662,0.3438,0.3503,0.3623,0.373,0.3734,0.3736,0.3738,0,0.2354,0.2428,0.2544,0.2688,0.2727,0.2817,0.2975,0.3072,0.3226,0.3314,0.3426,0.3498,0.3608,0.3588,0.3717,0.3682,0.3712,0.3741,0.3745,0.3522,0.3461,0.3639,0.3765,0.3763,0.3761,0.3759,0.3757,0,0.2286,0.2445,0.254,0.2596,0.2766,0.2849,0.2951,0.3108,0.3197,0.3391,0.3485,0.3608,0.3711,0.3766,0.3825,0.3799,0.3948,0.3911,0.3726,0.3711,0.3862,0.3849,0.3989,0.3989,0.3989,0.3989,0.3989,0,0.2266,0.235,0.2531,0.2585,0.2704,0.2837,0.2979,0.3099,0.3275,0.3374,0.3536,0.3625,0.377,0.3858,0.3875,0.3841,0.3989,0.3741,0.3723,0.3882,0.387,0.3873,0.3858,0.3993,0.3992,0.3991,0.399,0,0.2171,0.2297,0.2411,0.261,0.2678,0.2765,0.2976,0.3059,0.3266,0.3406,0.3478,0.3684,0.3804,0.3901,0.4012,0.3891,0.3892,0.3842,0.402,0.4011,0.3605,0.3593,0.3636,0.3629,0.3623,0.3618,0.3613,0,0.2125,0.218,0.2396,0.246,0.2564,0.2716,0.2804,0.3025,0.3108,0.3397,0.3433,0.3649,0.3753,0.3725,0.3845,0.3858,0.3812,0.3774,0.366,0.359,0.3571,0.3567,0.3563,0.3604,0.3602,0.3601,0.3599,0,0.203,0.2132,0.222,0.2352,0.2467,0.2571,0.2725,0.2764,0.3006,0.3221,0.3313,0.3383,0.3514,0.358,0.3628,0.3623,0.3771,0.3709,0.372,0.3614,0.3552,0.3537,0.354,0.3578,0.3581,0.3583,0.3584,0,0.1957,0.1986,0.2113,0.2209,0.2332,0.2386,0.2494,0.2595,0.2708,0.3015,0.3035,0.3271,0.3475,0.3461,0.3497,0.3486,0.3425,0.3283,0.3315,0.334,0.3191,0.3066,0.2932,0,0,0,0,0,0.1865,0.1878,0.1954,0.2042,0.2152,0.2238,0.2411,0.2522,0.2751,0.2736,0.2878,0.2984,0.3068,0.3185,0.3115,0.3366,0.3436,0.3267,0.3289,0.3461,0.3485,0.3336,0,0,0,0,0,0,0.1803,0.1865,0.1893,0.1879,0.1909,0.2016,0.2125,0.2291,0.2294,0.2541,0.2605,0.2793,0.2923,0.3081,0.3057,0.309,0.3037,0.3411,0.3403,0.3447,0.3469,0.3489,0.3343,0,0,0,0,0]},{"header":{"parameterUnit":"m.s-1","parameterCategory":2,"la1":30.2991,"la2":30.254,"lo1":-89.0895,"lo2":-89.0444,"dy":0.0017,"dx":0.0017,"nx":28,"ny":28,"refTime":"2024-06-22T03:00:00:Z","depth":"4","parameterNumber":3,"parameterNumberName":"V-component_of_CURRENTS"},"data":[0,0,0,0,0,0,0,0,0,0,0,0,0,0,0,0,0,0,0,0,0,0,0,0,0,0,0,0,0,0,0,0,0,0,0,0,0,0,0,0,0,0,0,0,0,0,0,0,0,0,0,0,0,0,0,0,0,0,0.0307,0.0307,0,0.0265,0.0264,0.0263,0.0239,0.0239,0.0239,0.0239,0.0135,0.0132,0.0129,0,0,0,0,0,0,0,0,0,0,0,0,0,0.0299,0.0299,0.0307,0.0307,0.0307,0.0265,0.0264,0.0263,0.0239,0.0239,0.0239,0.0239,0.0136,0.0132,0.0129,0,0,0,0,0,0,0,0,0,0,0,0,0,0.0281,0.03,0.0307,0.0292,0.029,0.0265,0.0264,0.0263,0.0239,0.0239,0.0239,0.0239,0.0137,0.0133,0.0128,0.0095,0,0,0.0115,0.0113,0,0,0,0,0,0,0,0,0.0283,0.0281,0.0294,0.0293,0.0291,0.026,0.0223,0.0205,0.0239,0.0255,0.0239,0.024,0.0173,0.0165,0.0153,0.009,0.0086,0.0114,0.0112,0.011,0.0108,0,0,0,0,0,0,0,0.0284,0.0283,0.0287,0.0294,0.0292,0.0264,0.0262,0.0219,0.0209,0.0254,0.0253,0.0252,0.0171,0.0158,0.015,0.0084,0.0114,0.011,0.0108,0.0106,-0.001,-0.001,0,0,0,0,0,0,0.0299,0.0284,0.0289,0.0286,0.0291,0.0264,0.0262,0.0267,0.0211,0.0204,0.0252,0.0252,0.0165,0.0156,0.0147,0.0125,0.011,0.0106,0.0103,-0.0009,-0.001,-0.001,0,0,0,0,0,0,0.0299,0.03,0.0291,0.0286,0.0284,0.0265,0.027,0.0266,0.0259,0.0211,0.0203,0.0251,0.0165,0.0153,0.0116,0.012,0.0104,0.0099,-0.0009,-0.0009,-0.001,0.0069,0,0,0,0,0,0,0.0299,0.03,0.0307,0.0288,0.0285,0.0282,0.027,0.0265,0.026,0.0258,0.0206,0.0197,0.0164,0.0123,0.0112,0.0114,0.0096,-0.0008,-0.0009,-0.001,0.0067,0.0071,0.0075,0,0,0,0,0,0.0299,0.0309,0.0308,0.0308,0.0296,0.0282,0.0278,0.0262,0.026,0.0256,0.0224,0.0199,0.011,0.0119,0.0106,0.0107,-0.0008,-0.0009,-0.001,0.0065,0.007,0.0074,0,0,0,0,0,0,0.0306,0.0307,0.0305,0.0315,0.0304,0.028,0.0278,0.0267,0.024,0.024,0.0194,0.0182,0.0151,0.0113,0.0125,0.0069,0.0046,0.0042,0.0107,0.0111,0.0115,0.0136,0.0092,0,0,0,0,0,0.0313,0.0323,0.0313,0.0321,0.0319,0.0299,0.0292,0.0284,0.026,0.0249,0.0214,0.0173,0.0134,0.0113,0.0072,0.0041,0.0004,0.003,0.0034,0.0038,0.0044,-0.0003,-0.0002,-0.0013,-0.0013,-0.0013,0,0,0.0318,0.032,0.0326,0.0323,0.0314,0.0318,0.0295,0.0292,0.0293,0.024,0.0226,0.0185,0.0128,0.0099,0.0081,0.007,0.002,0.0037,0.0041,0.0045,-0.0004,-0.0002,-0.0001,-0.0014,-0.0014,-0.0014,0,0,0.0335,0.0337,0.0351,0.0346,0.0342,0.0333,0.0337,0.0318,0.0306,0.0287,0.025,0.0214,0.0157,0.012,0.0093,0.0089,0.0043,0.0073,0.011,0.0065,0.0066,0.0067,0.0022,0.0017,0.0075,0.0075,0.0076,0,0.034,0.0362,0.0351,0.0361,0.0368,0.0346,0.0364,0.0344,0.0316,0.0309,0.0294,0.0216,0.0167,0.0131,0.0131,0.01,0.0067,0.0103,0.0073,0.0073,0.0072,0.0025,0.002,0.0079,0.0079,0.0078,0.0078,0,0.0365,0.0384,0.0391,0.0406,0.0408,0.0417,0.0402,0.0395,0.0384,0.0366,0.0332,0.0266,0.0226,0.0197,0.0163,0.0132,0.0109,0.0087,0.007,0.0078,0.0028,0.0021,0.0084,0.0083,0.0082,0.0081,0,0,0.0373,0.0405,0.0408,0.0433,0.0437,0.0445,0.0448,0.0447,0.0459,0.0412,0.0415,0.0337,0.0309,0.0275,0.0222,0.0175,0.0137,0.0136,0.0132,0.0107,0.0039,0.0021,0.0011,0.0115,0.0115,0.0114,0.0007,0,0.0398,0.0441,0.0448,0.0492,0.0518,0.0508,0.0519,0.0513,0.05,0.0492,0.042,0.04,0.0336,0.0324,0.0267,0.0174,0.0122,0.0168,0.0021,0.0016,0.0012,0.0003,0.0111,0.0001,-0.0001,-0.0002,-0.0003,0,0.0423,0.0453,0.0508,0.0556,0.0566,0.0592,0.0621,0.0627,0.0604,0.0591,0.0555,0.0503,0.0431,0.0379,0.0224,0.026,0.0159,0.0077,0.0071,0.0023,-0.0015,-0.0014,-0.0017,-0.0015,-0.0014,-0.0014,-0.0013,0,0.0449,0.0497,0.0553,0.0565,0.0609,0.0638,0.0662,0.0664,0.0688,0.0663,0.0679,0.0578,0.0544,0.0404,0.0238,0.0234,0.0063,0.0036,-0.0082,-0.0085,-0.0069,-0.0069,-0.0077,-0.0077,-0.0077,-0.0076,-0.0076,0,0.0475,0.0517,0.0576,0.0604,0.068,0.069,0.0763,0.0764,0.0785,0.083,0.0743,0.0742,0.0551,0.0433,0.0266,0.0075,0.0083,-0.0077,-0.0113,-0.0035,-0.003,-0.0074,-0.0073,-0.008,-0.0079,-0.0079,-0.0078,0,0.0494,0.0528,0.06,0.0667,0.0701,0.0756,0.0851,0.0895,0.0904,0.096,0.0961,0.0867,0.0712,0.0505,0.0272,0.0127,-0.0066,-0.014,-0.0036,-0.0065,-0.0193,-0.0186,-0.0279,-0.028,-0.0281,-0.0282,-0.0283,0,0.0507,0.0549,0.0655,0.0713,0.0754,0.0845,0.0913,0.0956,0.1013,0.1037,0.1065,0.0943,0.0852,0.052,0.0282,-0.0043,-0.0095,-0.0201,-0.0208,-0.0188,-0.0214,-0.0205,-0.0197,-0.0285,-0.0286,-0.0286,-0.0286,0,0.0534,0.058,0.0642,0.0767,0.0859,0.0963,0.1064,0.1115,0.1169,0.1178,0.116,0.0991,0.0812,0.0535,0.0281,0.0045,-0.0136,-0.0216,-0.0215,-0.0223,-0.0197,-0.022,-0.021,-0.0291,-0.029,-0.029,-0.029,0,0.0562,0.0612,0.0708,0.0816,0.0937,0.1054,0.1101,0.1174,0.123,0.1252,0.1241,0.1048,0.0935,0.058,0.0347,0.0111,0.0041,-0.0046,-0.0055,-0.0053,0.0034,0.0101,0.0069,0,0,0,0,0,0.0588,0.065,0.0749,0.0875,0.0995,0.1072,0.1194,0.123,0.1286,0.1289,0.1272,0.1107,0.0771,0.0622,0.0384,0.0291,-0.0021,0.0,-0.013,-0.0316,-0.031,-0.0249,0,0,0,0,0,0,0.0607,0.07,0.0749,0.0911,0.1001,0.1144,0.1226,0.1261,0.1262,0.1277,0.1105,0.1032,0.0702,0.0912,0.0377,0.0304,0.0183,-0.0153,-0.0159,-0.0319,-0.0314,-0.031,-0.0245,0,0,0,0,0]}]]